Location: Molveno
(46.1500°N, 10.9667°E)
Time: 16:42:52
(UTC+00:00)

Cosmos 1943 Rocket - Pass Details

Date: 05 July 2020
Orbit: 811 x 845 km, 71.0° (Epoch: 10 August)

Event Time Altitude Azimuth Distance (km) Brightness Sun altitude
Rises 22:53:42 0° 336° (NNW) 3,415 6.7 -20.9°
Reaches altitude 10° 22:56:14 10° 341° (NNW) 2,476 5.7 -21.0°
Maximum altitude 23:01:48 55° 59° (ENE) 1,010 2.7 -21.0°
Enters shadow 23:04:43 27° 125° (SE) 1,552 3.2 -21.1°
